Voltar ao catálogo

STARLINK-34378

AtivoComunicaçõesVLEO
NORAD 64299·PAYLOAD·🇺🇸 United States

Lançado Jun 8, 2025 de Vandenberg Space Force Base

Loading…

Próximas Passagens (próximas 24 horas)

TLE

AtualizadoSource: CelesTrak SupGP

Época: Sep 15, 2026, 03:21 UTC

1 64299C 25123J   26258.14006944 -.00046128  00000+0 -16055-2 0  2583
2 64299  70.0000  75.1318 0003270 271.7091 244.7543 15.29584687    18

Acompanhe STARLINK-34378 em tempo real com AllMySat

Download on the App Store